Tracking 30746 objects as of 19-Jun-2025
HD Live streaming from Space Station
objects crossing your sky now

STARLINK-30327

Track STARLINK-30327 now!
10-day predictions
STARLINK-30327 is classified as:


NORAD ID: 57707
Int'l Code: 2023-129K
Perigee: 565.2 km
Apogee: 566.9 km
Inclination: 43.0 °
Period: 95.8 minutes
Semi major axis: 6937 km
RCS: Unknown
Launch date: August 27, 2023
Source: United States (US)
Launch site: AIR FORCE EASTERN TEST RANGE (AFETR)
Your satellite tracking list
Your tracking list is empty




NASA's NSSDC Master Catalog

Two Line Element Set (TLE):
1 57707U 23129K   25170.18409996  .00004485  00000-0  34639-3 0  9993
2 57707  43.0028  99.6293 0001184 267.9479  92.1228 15.02591144101021
Source of the keplerian elements: AFSPC